Wind_Speed
12 11 11 10 10 10 10 11 12 13 14 15 16 16 16 16 16 15 15 16 15 16 17 17 18 18 17 17 18 18 18 18 19 19 19 19 19 20 20 21 21 21 21
13 13 12 12 12 12 13 13 15 16 16 17 18 19 19 19 18 18 18 19 18 19 19 20 20 20 20 20 20 20 21 21 21 21 21 22 22 23 23 24 24 24 24
14 14 14 14 14 15 15 16 17 17 18 20 21 21 22 21 20 21 21 21 22 21 21 22 22 23 23 22 23 23 23 24 24 25 25 26 26 27 27 28 28 29 29
16 15 16 16 16 17 18 19 20 20 20 21 23 23 23 23 22 22 23 23 23 23 24 24 25 25 25 25 25 26 26 27 28 29 29 30 30 31 32 33 33 33 33
17 17 18 18 19 20 21 21 22 22 22 23 24 24 23 23 23 23 24 24 25 24 25 26 26 27 27 28 28 29 30 31 31 32 33 34 35 35 36 36 37 38 38
19 19 20 20 21 22 24 24 25 24 24 25 25 25 24 24 24 24 24 24 25 25 26 28 29 30 30 30 31 31 32 33 34 35 36 37 38 39 40 41 41 41 42
21 21 22 23 24 25 26 27 28 27 26 25 25 24 24 24 25 25 25 25 26 27 28 28 30 31 32 32 33 34 35 36 37 39 40 41 42 43 44 45 45 45 46
23 25 25 25 26 27 27 26 26 26 26 25 25 25 24 25 25 25 25 26 28 28 29 30 32 33 34 35 36 38 39 40 41 43 44 45 46 47 48 48 48 49 50
25 25 26 27 28 29 27 27 27 27 26 27 28 26 26 26 26 26 26 27 28 30 31 32 33 35 37 38 39 41 43 44 45 47 48 49 50 50 51 52 53 53 54
26 27 28 29 29 28 27 27 28 28 27 26 27 27 26 26 27 27 28 30 31 32 34 36 37 38 40 42 43 44 46 47 48 50 51 52 53 54 55 57 58 59 59
26 27 28 29 29 27 26 25 26 26 26 26 26 27 27 28 28 30 31 32 34 36 38 39 42 43 44 45 46 47 48 50 52 53 54 56 57 58 60 61 62 63 64
28 28 29 28 28 27 26 25 25 26 27 28 28 29 29 31 31 32 33 34 36 38 40 42 44 45 47 48 48 49 51 53 56 57 58 59 61 63 64 66 66 67 67
29 30 30 29 30 29 28 27 27 27 28 29 29 30 32 33 34 35 36 37 39 41 43 44 46 47 49 50 52 53 54 57 58 60 62 63 65 67 67 68 69 69 70
30 31 30 30 30 30 30 31 31 32 33 33 34 35 36 37 38 38 39 41 43 45 46 47 49 51 52 54 56 57 57 60 62 64 66 68 69 69 68 69 70 70 71
32 32 31 32 33 33 34 35 35 36 37 38 39 40 41 41 42 43 44 45 47 48 49 51 52 53 55 56 58 60 61 62 64 66 66 67 67 67 67 67 67 66 66
34 34 35 35 37 37 38 38 39 40 41 42 43 44 44 45 46 47 48 49 49 51 52 53 54 56 58 60 61 62 63 64 64 64 64 64 65 64 62 62 61 59 59
37 38 38 39 39 40 41 42 42 43 44 45 46 46 46 47 48 49 50 51 52 53 55 55 56 58 59 60 61 61 61 61 61 60 60 60 60 59 58 57 57 57 56
39 40 41 41 42 43 44 44 44 45 46 47 47 47 48 48 50 51 52 53 54 55 55 57 57 58 58 58 58 57 57 57 56 56 56 55 54 53 53 54 53 52 51
41 42 43 44 44 45 45 45 46 46 47 47 48 49 50 51 51 52 52 53 54 54 54 54 54 54 54 54 54 54 53 52 51 51 50 49 49 48 48 47 46 45 45
42 43 44 44 44 45 45 45 46 47 47 48 49 50 51 51 51 52 52 52 52 52 52 51 51 51 51 51 50 49 48 47 46 45 45 44 43 42 41 40 40 41 42
42 43 43 43 44 44 44 46 47 47 48 48 48 49 49 50 50 50 50 50 50 50 49 47 47 47 46 45 43 42 41 41 40 39 38 37 36 36 36 36 36 36 37
40 41 41 41 42 43 44 45 45 45 45 45 45 46 46 45 45 44 44 44 43 42 42 42 41 40 38 37 35 34 33 33 32 31 30 30 30 30 30 30 31 32 33
37 37 38 38 40 40 41 41 41 41 41 42 42 41 39 38 37 36 36 36 35 35 34 34 32 31 30 29 28 28 27 27 26 25 25 25 25 26 26 27 27 27 28
34 34 35 36 37 37 37 37 36 36 36 35 33 32 31 30 29 28 27 27 27 26 25 24 24 23 22 22 22 22 21 21 20 20 20 20 22 22 23 24 24 24 25
31 32 33 33 32 32 31 30 30 29 29 28 27 25 24 23 21 21 20 19 19 18 17 16 16 16 17 16 16 16 16 16 16 17 18 18 19 21 21 22 21 22 23
28 29 28 28 27 26 26 26 25 24 24 23 21 19 18 17 15 15 14 13 12 12 11 11 11 12 12 12 12 13 14 14 15 15 16 17 17 18 19 20 20 21 22
Wind_Direction
239 245 250 254 260 268 277 284 287 289 292 296 300 302 303 303 298 295 292 288 282 280 277 274 273 273 273 273 272 272 273 273 273 273 273 274 274 273 274 275 276 277 278
242 248 252 257 263 270 275 280 286 292 293 293 296 295 295 294 292 290 286 284 281 279 275 274 273 272 272 273 274 274 274 274 274 273 274 274 274 274 275 275 277 278 279
243 249 254 259 265 271 276 280 285 289 293 292 291 293 293 292 288 287 285 282 279 277 273 272 271 271 272 272 274 273 273 274 275 274 274 274 274 275 276 276 277 278 278
247 253 258 263 268 272 275 279 283 286 290 292 292 291 292 291 288 287 285 283 279 275 271 272 270 270 271 271 274 274 273 275 275 275 274 274 274 275 276 276 276 277 277
252 257 262 266 270 274 276 279 283 285 288 290 290 289 291 291 288 285 282 281 278 276 273 271 270 270 270 271 273 274 274 274 275 275 275 275 275 276 277 277 277 277 278
255 261 265 267 270 274 277 277 281 285 288 291 290 288 289 289 287 282 279 279 279 277 274 272 271 271 271 272 272 273 273 274 276 276 276 277 277 277 278 278 278 279 280
258 263 265 269 270 274 275 276 281 283 285 289 289 285 285 288 285 278 277 278 278 276 273 272 272 272 270 272 273 273 273 274 275 277 278 279 278 278 278 279 279 280 280
263 265 267 272 273 275 277 277 282 282 284 287 287 285 282 284 284 282 279 275 274 273 272 273 274 272 272 271 271 272 273 274 276 277 278 279 279 279 279 279 280 281 281
266 268 269 273 276 277 282 279 284 288 284 285 287 286 284 279 278 279 278 275 274 273 272 271 271 271 271 271 272 273 274 274 276 277 278 279 279 279 279 279 279 280 281
268 269 269 271 279 283 286 286 286 288 287 285 283 285 286 283 278 277 277 275 273 275 276 274 273 273 273 272 273 274 275 275 276 277 278 278 279 279 280 280 280 280 281
271 273 273 277 281 286 290 291 292 292 292 291 286 287 288 286 283 280 276 276 276 277 276 275 275 276 276 274 273 275 275 276 277 277 277 279 279 279 280 280 281 281 281
272 277 282 287 287 290 292 294 296 295 292 291 289 288 288 288 285 282 280 277 278 277 276 276 277 277 276 275 276 277 277 277 277 277 277 278 279 280 280 279 279 280 280
277 280 286 289 290 290 291 292 294 296 293 292 291 289 288 287 286 284 282 281 279 278 278 278 278 277 276 277 277 276 276 276 277 277 277 278 279 280 280 279 280 280 280
284 288 289 291 291 291 290 291 292 293 291 290 290 289 287 285 285 283 282 282 280 280 279 278 278 277 277 278 277 277 277 276 277 278 278 280 280 280 280 280 280 281 281
289 290 290 291 293 293 292 292 291 291 290 289 289 288 287 285 283 282 281 281 281 279 278 278 277 277 277 278 277 277 277 277 277 279 281 281 281 281 281 283 283 284 284
288 287 289 290 291 291 291 291 290 290 290 289 289 288 286 284 283 282 282 281 280 280 278 277 277 277 278 278 278 278 278 279 280 281 282 283 283 284 285 285 285 286 286
286 288 288 289 290 291 291 290 289 289 289 289 288 287 286 284 283 282 282 281 279 279 278 278 278 278 278 278 278 278 279 280 281 282 283 284 285 286 287 287 288 289 289
285 288 289 289 290 290 290 290 290 289 289 289 288 287 287 286 284 283 281 281 280 279 279 279 279 278 278 278 278 278 280 281 282 283 284 286 287 288 289 290 291 291 291
285 287 288 289 290 290 291 291 290 290 290 289 289 288 287 286 285 283 282 282 281 280 280 279 279 279 279 279 280 281 282 283 284 286 287 288 289 290 291 292 293 292 292
285 287 288 289 290 291 291 292 292 291 290 290 290 289 287 286 285 284 283 281 280 280 280 279 279 280 280 281 283 283 285 286 287 288 290 291 292 292 293 294 294 295 295
286 288 289 289 290 291 292 293 293 293 293 292 292 290 289 287 286 284 283 281 280 280 280 280 280 281 282 283 284 285 287 288 290 292 293 293 294 295 296 297 298 300 300
287 289 289 291 292 293 293 294 295 295 296 295 294 293 291 290 289 287 284 283 282 282 282 282 283 284 285 286 287 288 289 291 292 294 295 296 297 299 301 302 304 306 306
289 291 292 293 294 294 295 295 297 297 297 297 297 296 295 295 293 292 290 288 286 285 285 284 284 286 287 288 288 289 291 293 294 296 297 299 302 305 308 310 312 314 315
290 291 292 294 295 296 298 298 299 300 301 302 302 302 302 301 301 300 298 296 294 292 291 290 289 289 289 289 291 293 295 298 299 300 302 305 309 312 316 319 321 322 325
292 293 295 297 298 299 300 302 305 307 309 310 312 312 311 310 310 310 309 306 303 301 299 298 297 297 296 297 301 303 305 306 307 309 312 315 318 321 325 329 332 333 335
295 297 298 299 300 302 306 309 313 315 318 321 322 321 321 321 323 326 326 326 324 322 320 317 315 313 312 313 315 316 316 316 317 319 321 323 326 329 334 337 340 342 344
Height
5890 5890 5891 5891 5892 5892 5892 5891 5891 5890 5889 5888 5886 5885 5885 5884 5883 5882 5880 5879 5879 5878 5877 5876 5875 5875 5874 5873 5872 5872 5871 5870 5870 5869 5868 5867 5867 5866 5865 5864 5863 5862 5862
5887 5887 5888 5888 5888 5888 5888 5888 5887 5886 5884 5883 5883 5881 5880 5880 5878 5877 5876 5875 5874 5873 5872 5872 5871 5870 5870 5869 5868 5868 5867 5866 5865 5865 5864 5863 5862 5861 5860 5859 5858 5857 5856
5883 5884 5884 5884 5884 5884 5883 5883 5883 5882 5881 5879 5878 5877 5875 5874 5873 5872 5870 5869 5868 5867 5867 5866 5866 5865 5864 5864 5863 5863 5862 5861 5860 5859 5858 5857 5856 5855 5854 5853 5852 5851 5849
5880 5880 5880 5880 5880 5880 5879 5879 5878 5878 5876 5874 5873 5871 5870 5868 5867 5866 5865 5864 5863 5862 5861 5861 5860 5859 5859 5858 5857 5857 5856 5855 5854 5853 5852 5850 5849 5848 5847 5845 5844 5843 5841
5875 5875 5875 5875 5875 5875 5874 5874 5873 5872 5871 5869 5867 5865 5864 5863 5861 5860 5859 5858 5857 5856 5855 5855 5854 5853 5853 5852 5851 5850 5849 5847 5846 5845 5844 5842 5841 5840 5838 5837 5835 5834 5832
5870 5870 5870 5870 5870 5869 5868 5868 5867 5866 5865 5863 5861 5860 5858 5857 5855 5854 5853 5852 5851 5850 5849 5848 5847 5847 5846 5845 5844 5842 5841 5840 5838 5837 5835 5834 5832 5830 5829 5827 5826 5824 5823
5864 5864 5864 5864 5864 5863 5862 5861 5861 5859 5858 5857 5856 5854 5853 5851 5849 5848 5847 5846 5845 5843 5843 5842 5841 5840 5839 5837 5836 5835 5833 5832 5830 5828 5826 5824 5822 5821 5819 5817 5815 5813 5812
5858 5858 5858 5858 5858 5856 5855 5855 5854 5853 5852 5850 5849 5847 5846 5846 5843 5841 5840 5839 5838 5837 5836 5835 5834 5832 5831 5829 5828 5826 5824 5822 5820 5818 5816 5814 5811 5809 5807 5805 5803 5801 5799
5852 5852 5852 5852 5851 5850 5848 5848 5847 5846 5845 5843 5842 5841 5839 5839 5837 5835 5833 5832 5831 5829 5828 5827 5826 5824 5822 5821 5819 5817 5815 5813 5810 5807 5805 5802 5800 5797 5795 5792 5790 5787 5785
5846 5846 5845 5844 5844 5843 5842 5841 5840 5839 5837 5836 5835 5834 5832 5831 5830 5829 5827 5825 5823 5821 5820 5818 5817 5815 5813 5811 5809 5807 5804 5801 5798 5795 5792 5789 5787 5784 5781 5779 5776 5773 5770
5838 5838 5837 5837 5836 5835 5834 5833 5832 5831 5830 5829 5828 5826 5825 5823 5822 5821 5819 5817 5815 5813 5811 5809 5807 5805 5803 5800 5798 5795 5792 5789 5786 5782 5779 5776 5773 5770 5767 5763 5760 5757 5754
5831 5831 5830 5829 5828 5827 5826 5825 5824 5823 5822 5821 5820 5818 5816 5815 5813 5811 5809 5807 5805 5803 5801 5798 5796 5793 5791 5788 5785 5782 5779 5776 5772 5768 5765 5762 5758 5755 5751 5747 5744 5740 5736
5822 5822 5821 5821 5819 5818 5818 5817 5816 5815 5814 5813 5811 5809 5807 5805 5803 5801 5799 5796 5794 5792 5789 5786 5784 5781 5778 5775 5772 5769 5765 5762 5758 5754 5750 5746 5742 5738 5734 5730 5726 5721 5717
5814 5814 5813 5813 5812 5810 5810 5809 5808 5806 5805 5803 5802 5800 5797 5795 5793 5790 5788 5785 5782 5779 5776 5774 5771 5768 5765 5762 5758 5754 5750 5747 5743 5738 5734 5729 5725 5720 5716 5711 5707 5702 5698
5807 5806 5806 5804 5803 5802 5801 5800 5798 5797 5795 5793 5791 5788 5786 5783 5781 5778 5775 5772 5770 5766 5763 5760 5757 5754 5751 5747 5743 5739 5735 5730 5726 5721 5717 5712 5707 5702 5698 5693 5688 5683 5679
5799 5798 5797 5796 5794 5793 5791 5789 5788 5785 5783 5781 5778 5775 5773 5770 5767 5765 5762 5758 5755 5752 5748 5745 5742 5739 5735 5732 5728 5723 5719 5715 5709 5704 5699 5695 5690 5685 5681 5676 5671 5666 5662
5790 5789 5787 5786 5784 5782 5780 5778 5776 5773 5771 5768 5765 5762 5759 5756 5753 5750 5747 5744 5741 5738 5734 5730 5727 5723 5720 5716 5712 5707 5703 5698 5693 5689 5684 5679 5675 5670 5666 5661 5656 5651 5646
5781 5779 5777 5775 5773 5771 5768 5766 5763 5761 5758 5755 5752 5748 5745 5742 5739 5735 5732 5729 5725 5722 5719 5714 5711 5707 5704 5700 5696 5692 5687 5683 5679 5674 5670 5665 5661 5656 5652 5647 5642 5637 5632
5771 5769 5767 5765 5762 5759 5756 5754 5751 5748 5745 5741 5738 5734 5731 5727 5723 5720 5716 5713 5709 5706 5702 5698 5695 5691 5688 5684 5680 5676 5673 5668 5664 5660 5656 5652 5648 5644 5639 5635 5630 5625 5620
5761 5758 5756 5753 5751 5748 5744 5741 5738 5735 5731 5728 5724 5720 5715 5711 5707 5704 5700 5696 5693 5689 5686 5682 5679 5675 5672 5669 5666 5662 5659 5655 5652 5648 5644 5641 5637 5633 5628 5624 5619 5614 5609
5750 5748 5745 5742 5739 5736 5733 5729 5726 5722 5717 5713 5709 5704 5700 5695 5691 5687 5683 5679 5676 5673 5670 5667 5664 5661 5658 5655 5653 5649 5647 5643 5640 5638 5634 5631 5627 5623 5619 5614 5609 5604 5599
5739 5737 5734 5731 5728 5725 5721 5717 5713 5709 5704 5699 5694 5689 5684 5679 5675 5671 5667 5664 5661 5658 5655 5653 5651 5648 5646 5644 5641 5639 5637 5634 5632 5629 5626 5622 5619 5615 5611 5606 5601 5596 5590
5729 5727 5724 5721 5717 5714 5710 5706 5701 5697 5692 5686 5681 5676 5671 5666 5662 5658 5654 5651 5648 5646 5644 5642 5640 5638 5637 5635 5633 5631 5629 5627 5624 5622 5619 5615 5612 5608 5604 5599 5594 5589 5583
5720 5717 5714 5711 5708 5704 5700 5695 5691 5686 5681 5675 5670 5665 5661 5656 5652 5648 5645 5642 5639 5637 5635 5634 5632 5630 5629 5627 5626 5624 5623 5620 5618 5616 5613 5610 5607 5603 5599 5594 5588 5583 5577
5712 5709 5705 5702 5698 5695 5690 5686 5682 5677 5672 5667 5662 5657 5653 5650 5646 5642 5639 5636 5633 5632 5630 5628 5627 5625 5624 5623 5621 5620 5618 5616 5614 5611 5609 5606 5602 5598 5594 5589 5584 5578 5573
5704 5700 5697 5693 5690 5686 5683 5678 5674 5670 5665 5661 5657 5653 5649 5646 5642 5639 5636 5633 5631 5629 5627 5625 5624 5623 5621 5620 5618 5617 5615 5613 5610 5608 5605 5602 5598 5594 5590 5586 5581 5575 5569